N7DTY Weather Reports


time (UTC)temp
C
wind
direction
speed
KPH
gust
KPH
rain 1hr
cm
rain 24hr
cm
rain mn
cm
humidity
%
barometer
mb
20260904054524 11 121 0.0 0.0 0.00 0.00 0.00 84 1010.4
20260904053022 11 121 0.0 0.0 0.00 0.00 0.00 83 1010.4
20260904051522 12 121 0.0 0.0 0.00 0.00 0.00 82 1010.3
20260904050021 12 121 0.0 0.0 0.00 0.00 0.00 81 1010.3
20260904044527 12 121 0.0 0.0 0.00 0.00 0.00 80 1010.2
20260904043020 12 121 0.0 0.0 0.00 0.00 0.00 79 1010.2
20260904041512 12 121 0.0 0.0 0.00 0.00 0.00 78 1010.2
20260904040011 13 121 0.0 0.0 0.00 0.00 0.00 77 1010.1
20260904034508 13 121 0.0 0.0 0.00 0.00 0.00 77 1010.0
20260904033006 13 121 0.0 0.0 0.00 0.00 0.00 76 1009.9
20260904031506 14 121 0.0 1.6 0.00 0.00 0.00 74 1009.8
20260904030015 15 121 0.0 1.6 0.00 0.00 0.00 74 1009.8
20260904024505 15 121 0.0 3.2 0.00 0.00 0.00 73 1009.7
20260904023004 15 121 0.0 0.0 0.00 0.00 0.00 71 1009.7
20260904021508 16 121 0.0 0.0 0.00 0.00 0.00 71 1009.5
20260904020004 16 122 0.0 1.6 0.00 0.00 0.00 70 1009.5
20260904014505 16 122 0.0 3.2 0.00 0.03 0.00 70 1009.4
20260904013003 17 11 0.0 3.2 0.00 0.03 0.00 69 1009.4
20260904011503 17 171 0.0 3.2 0.00 0.03 0.00 67 1009.2
20260904010002 17 281 0.0 3.2 0.00 0.03 0.00 67 1009.3
20260904004502 17 190 1.6 9.7 0.00 0.05 0.00 66 1009.2
20260904003002 18 111 0.0 4.8 0.00 0.05 0.00 65 1009.2
20260904000100 18 273 1.6 8.0 0.00 0.05 0.00 62 1009.2
20260903234600 18 149 0.0 9.7 0.00 0.05 0.00 64 1009.2
20260903233059 18 178 3.2 11.3 0.00 0.05 0.00 62 1009.4
20260903231606 18 176 3.2 8.0 0.00 0.05 0.00 61 1009.4
20260903230100 19 172 3.2 8.0 0.00 0.05 0.00 60 1009.4
20260903224556 19 196 1.6 6.4 0.00 0.05 0.00 58 1009.4
20260903223058 19 170 1.6 6.4 0.00 0.05 0.00 58 1009.5
20260903221557 18 167 0.0 6.4 0.00 0.05 0.00 61 1009.6
20260903220117 18 186 0.0 4.8 0.00 0.05 0.00 60 1009.8
20260903214550 18 143 0.0 3.2 0.00 0.05 0.00 62 1009.9
20260903213050 17 229 0.0 3.2 0.00 0.05 0.00 63 1010.0
20260903211554 17 174 0.0 4.8 0.00 0.05 0.00 61 1010.0
20260903210051 17 350 0.0 3.2 0.00 0.05 0.00 63 1009.9
20260903204546 17 15 0.0 3.2 0.00 0.05 0.00 65 1009.9
20260903203045 17 211 0.0 4.8 0.00 0.05 0.00 64 1009.8
20260903201545 17 215 0.0 4.8 0.00 0.05 0.00 65 1009.8
20260903200043 17 159 1.6 8.0 0.00 0.05 0.00 64 1009.7
20260903194541 17 201 0.0 11.3 0.00 0.05 0.00 64 1009.6
20260903193040 17 192 1.6 4.8 0.00 0.05 0.00 62 1009.6
20260903191550 17 161 3.2 11.3 0.00 0.05 0.00 64 1009.5
20260903190038 16 175 1.6 14.5 0.00 0.05 0.00 65 1009.5
20260903184544 16 172 3.2 11.3 0.00 0.05 0.00 63 1009.6
20260903183043 16 157 6.4 16.1 0.00 0.05 0.00 63 1009.5
20260903181536 17 157 4.8 14.5 0.00 0.05 0.00 64 1009.4
20260903180044 17 192 3.2 14.5 0.00 0.05 0.00 63 1009.3
20260903174533 17 202 0.0 8.0 0.00 0.05 0.00 64 1009.1
20260903173032 17 70 0.0 11.3 0.00 0.05 0.00 64 1008.9
20260903171530 17 195 1.6 16.1 0.00 0.05 0.00 62 1008.9
20260903170027 16 205 4.8 11.3 0.00 0.05 0.00 66 1008.8
20260903164526 16 162 6.4 14.5 0.00 0.05 0.00 66 1008.7
20260903163030 16 175 4.8 17.7 0.00 0.05 0.00 67 1008.7
20260903161522 16 243 3.2 9.7 0.00 0.05 0.00 67 1008.7
20260903160022 16 360 0.0 3.2 0.00 0.05 0.00 69 1008.6
20260903154516 15 190 1.6 6.4 0.00 0.05 0.00 69 1008.5
20260903153014 15 165 0.0 9.7 0.00 0.05 0.00 69 1008.6
20260903151514 15 173 0.0 4.8 0.00 0.05 0.00 70 1008.4
20260903150013 15 206 0.0 6.4 0.00 0.05 0.00 70 1008.3
20260903144509 15 186 0.0 12.9 0.00 0.05 0.00 70 1008.2
20260903143008 15 180 0.0 3.2 0.00 0.05 0.00 72 1008.1
20260903141509 15 207 0.0 14.5 0.00 0.05 0.00 72 1008.1
20260903140005 14 139 1.6 6.4 0.00 0.05 0.00 73 1008.0
20260903134600 13 198 0.0 3.2 0.00 0.05 0.00 73 1007.8
20260903133110 14 192 0.0 1.6 0.00 0.05 0.00 73 1007.6
20260903131609 14 192 0.0 1.6 0.00 0.05 0.00 73 1007.6
20260903130114 13 114 0.0 3.2 0.00 0.05 0.00 73 1007.4
20260903124556 13 114 0.0 3.2 0.00 0.05 0.00 73 1007.2
20260903123054 14 238 0.0 3.2 0.00 0.05 0.00 72 1007.3
20260903121552 14 238 0.0 11.3 0.00 0.05 0.00 71 1007.2
20260903120051 14 164 1.6 4.8 0.00 0.05 0.00 71 1007.3
20260903114549 14 153 3.2 17.7 0.00 0.05 0.00 72 1007.1
20260903113047 14 47 0.0 1.6 0.00 0.05 0.00 71 1007.0
20260903111545 15 333 0.0 8.0 0.00 0.05 0.00 71 1006.8
20260903110044 15 337 0.0 4.8 0.00 0.05 0.00 70 1006.8
20260903104542 15 217 3.2 17.7 0.00 0.05 0.00 71 1006.7
20260903103041 15 169 0.0 8.0 0.00 0.05 0.00 69 1006.5
20260903101540 15 177 1.6 16.1 0.00 0.05 0.00 69 1006.4
20260903100039 15 180 3.2 12.9 0.00 0.05 0.00 70 1006.2
20260903094537 15 96 0.0 16.1 0.00 0.05 0.00 70 1006.3
20260903093042 15 102 0.0 12.9 0.00 0.05 0.00 69 1006.2
20260903091538 15 65 1.6 14.5 0.00 0.05 0.00 69 1006.3
20260903090036 15 180 0.0 6.4 0.00 0.05 0.00 69 1006.2
20260903084533 15 140 1.6 9.7 0.00 0.05 0.00 69 1006.4
20260903083043 15 215 1.6 8.0 0.00 0.05 0.00 70 1006.4
20260903081532 15 182 1.6 9.7 0.00 0.05 0.00 70 1006.3
20260903080031 15 109 0.0 16.1 0.00 0.05 0.00 70 1006.4
20260903074528 15 168 1.6 12.9 0.00 0.05 0.00 71 1006.3
20260903073032 15 143 4.8 24.1 0.00 0.05 0.00 72 1006.1
20260903071527 15 191 4.8 12.9 0.00 0.05 0.00 73 1005.9
20260903070022 15 153 3.2 16.1 0.00 0.05 0.00 73 1005.8
20260903064528 15 146 1.6 12.9 0.00 0.05 0.05 73 1006.0
20260903063021 15 181 3.2 17.7 0.00 0.05 0.05 73 1005.9
20260903061524 15 188 3.2 17.7 0.00 0.05 0.05 73 1005.9
20260903060020 15 153 0.0 22.5 0.00 0.05 0.05 74 1005.8